Tracking 31027 objects as of 19-Jul-2025
HD Live streaming from Space Station
objects crossing your sky now

DMSP 5D-2 F13 DEB

Track DMSP 5D-2 F13 DEB now!
10-day predictions


NORAD ID: 40409
Int'l Code: 1995-015W
Perigee: 813.6 km
Apogee: 815.7 km
Inclination: 98.8 °
Period: 101.0 minutes
Semi major axis: 7185 km
RCS: Unknown
Launch date: March 24, 1995
Source: United States (US)
Launch site: AIR FORCE WESTERN TEST RANGE (AFWTR)

Note: This is SATELLITE DEBRIS
Your satellite tracking list
Your tracking list is empty




NASA's NSSDC Master Catalog

Two Line Element Set (TLE):
1 40409U 95015W   25199.49195761  .00001690  00000-0  73696-3 0  9995
2 40409  98.7604 219.8907 0001432  41.3942 318.7346 14.25294639538195
Source of the keplerian elements: AFSPC